World > North America > United States > Ohio

Hourly Withamsville, OH Regional Weather

Feedback E-mail the Weather

Quick WX

Withamsville, OH Weather Maps

°F °C°F °C
Withamsville Weather Map
UTC Time: 7/7/2022, 07:37
Your Time:

Withamsville, OH Regional Weather

Expires:202207070800;;883020
ASUS41 KCLE 070712
RWRCLE
OHIO REGIONAL WEATHER ROUNDUP
NATIONAL WEATHER SERVICE WILMINGTON, OH
300 AM EDT THU JUL 07 2022

NOTE: "FAIR" INDICATES FEW OR NO CLOUDS BELOW 12,000 FEET WITH NO
SIGNIFICANT WEATHER AND/OR OBSTRUCTIONS TO VISIBILITY.


OHZ042-051>053-060>062-070>072-077>081-070800-
  SOUTHWEST OHIO
  
CITY           SKY/WX    TMP DP  RH WIND       PRES   REMARKS
CINC-COVINGTON MOCLDY    74  74 100 NE6       29.97S FOG              
CINC-LUNKEN      N/A    N/A N/A N/A MISG      29.97S                  
HAMILTON       CLOUDY    74  72  93 CALM      29.98S                  
DAYTON         MOCLDY    70  66  87 N6        30.01S                  
WRIGHT-PAT AFB MOCLDY    69  68  94 NE6       29.96S                  
DAYTON GENERAL CLOUDY    72  69  90 NE8       29.98S                  
WILMINGTON     CLOUDY    72  69  90 NE6       29.98S                  
$$


SKY/WX - Weather  TMP - Temperature  DP - Dew Point  RH - Humidity
WIND - Wind Direction/Speed PRES - Barometric Pressure VSB - Visibility
WCI - Wind Chill Index E13G22 Wind - East Wind 13 mph/Gusts of 22 mph

Trending Headlines

Withamsville Radar Loop



Withamsville Quick Facts


National Two Day Weather Forecast


E-mail the Withamsville Weather Forecast

Voice your opinion or tell us about page issues...